| time (UTC) | temp C | wind direction | speed KPH | gust KPH | rain 1hr cm | rain 24hr cm | rain mn cm | humidity % | barometer mb |
| 20260510191758 | 28 | 128 | 8.0 | 12.9 | 0.00 | 0.00 | 0.00 | 68 | 1014.7 |
| 20260510191254 | 28 | 84 | 9.7 | 14.5 | 0.00 | 0.00 | 0.00 | 69 | 1015.0 |
| 20260510190753 | 28 | 82 | 16.1 | 16.1 | 0.00 | 0.00 | 0.00 | 70 | 1014.9 |
| 20260510190249 | 28 | 84 | 8.0 | 11.3 | 0.00 | 0.00 | 0.00 | 68 | 1014.8 |
| 20260510185745 | 28 | 103 | 4.8 | 6.4 | 0.00 | 0.00 | 0.00 | 68 | 1015.0 |
| 20260510185243 | 28 | 113 | 6.4 | 6.4 | 0.00 | 0.00 | 0.00 | 71 | 1014.9 |
| 20260510184739 | 27 | 159 | 9.7 | 11.3 | 0.00 | 0.00 | 0.00 | 72 | 1014.9 |
| 20260510184236 | 28 | 193 | 9.7 | 12.9 | 0.00 | 0.00 | 0.00 | 71 | 1015.0 |
| 20260510183731 | 27 | 88 | 8.0 | 12.9 | 0.00 | 0.00 | 0.00 | 72 | 1015.0 |
| 20260510183226 | 27 | 71 | 6.4 | 9.7 | 0.00 | 0.00 | 0.00 | 73 | 1015.0 |
| 20260510182723 | 27 | 128 | 14.5 | 16.1 | 0.00 | 0.00 | 0.00 | 72 | 1015.0 |
| 20260510182219 | 27 | 117 | 11.3 | 16.1 | 0.00 | 0.00 | 0.00 | 75 | 1015.2 |
| 20260510181716 | 27 | 82 | 16.1 | 17.7 | 0.00 | 0.00 | 0.00 | 75 | 1015.4 |
| 20260510181213 | 27 | 121 | 8.0 | 12.9 | 0.00 | 0.00 | 0.00 | 75 | 1015.2 |
| 20260510180709 | 27 | 150 | 12.9 | 12.9 | 0.00 | 0.00 | 0.00 | 75 | 1015.3 |
| 20260510180207 | 27 | 174 | 6.4 | 11.3 | 0.00 | 0.00 | 0.00 | 77 | 1015.4 |
| 20260510175702 | 26 | 134 | 9.7 | 12.9 | 0.00 | 0.00 | 0.00 | 77 | 1015.6 |
| 20260510175158 | 26 | 131 | 11.3 | 12.9 | 0.00 | 0.00 | 0.00 | 78 | 1015.4 |
| 20260510174655 | 27 | 159 | 12.9 | 14.5 | 0.00 | 0.00 | 0.00 | 77 | 1015.6 |
| 20260510174153 | 26 | 114 | 9.7 | 12.9 | 0.00 | 0.00 | 0.00 | 77 | 1015.5 |
| 20260510173649 | 26 | 54 | 14.5 | 16.1 | 0.00 | 0.00 | 0.00 | 78 | 1015.6 |
| 20260510173145 | 26 | 102 | 11.3 | 20.9 | 0.00 | 0.00 | 0.00 | 79 | 1015.9 |
| 20260510172640 | 26 | 87 | 12.9 | 16.1 | 0.00 | 0.00 | 0.00 | 78 | 1015.8 |
| 20260510172137 | 26 | 165 | 6.4 | 9.7 | 0.00 | 0.00 | 0.00 | 79 | 1015.9 |
| 20260510171634 | 25 | 85 | 12.9 | 16.1 | 0.00 | 0.00 | 0.00 | 80 | 1016.1 |
| 20260510171131 | 26 | 128 | 12.9 | 20.9 | 0.00 | 0.00 | 0.00 | 80 | 1016.2 |
| 20260510170627 | 26 | 126 | 8.0 | 12.9 | 0.00 | 0.00 | 0.00 | 79 | 1016.2 |
| 20260510170124 | 26 | 156 | 11.3 | 16.1 | 0.00 | 0.00 | 0.00 | 80 | 1016.1 |
| 20260510165620 | 26 | 89 | 9.7 | 12.9 | 0.00 | 0.00 | 0.00 | 79 | 1016.3 |
| 20260510165116 | 26 | 130 | 4.8 | 6.4 | 0.00 | 0.00 | 0.00 | 79 | 1016.2 |
| 20260510164614 | 26 | 102 | 11.3 | 14.5 | 0.00 | 0.00 | 0.00 | 80 | 1016.5 |
| 20260510164110 | 26 | 84 | 6.4 | 16.1 | 0.00 | 0.00 | 0.00 | 81 | 1016.3 |
| 20260510163605 | 25 | 145 | 6.4 | 11.3 | 0.00 | 0.00 | 0.00 | 81 | 1016.5 |
| 20260510163102 | 25 | 94 | 9.7 | 12.9 | 0.00 | 0.00 | 0.00 | 82 | 1016.4 |
| 20260510162602 | 25 | 149 | 11.3 | 14.5 | 0.00 | 0.00 | 0.00 | 82 | 1016.3 |
| 20260510162059 | 25 | 135 | 16.1 | 20.9 | 0.00 | 0.00 | 0.00 | 83 | 1016.5 |
| 20260510161554 | 25 | 128 | 6.4 | 11.3 | 0.00 | 0.00 | 0.00 | 83 | 1016.3 |
| 20260510161052 | 25 | 97 | 12.9 | 14.5 | 0.00 | 0.00 | 0.00 | 83 | 1016.4 |
| 20260510160549 | 26 | 114 | 14.5 | 16.1 | 0.00 | 0.00 | 0.00 | 83 | 1016.2 |
| 20260510160048 | 25 | 48 | 3.2 | 4.8 | 0.00 | 0.00 | 0.00 | 85 | 1016.3 |
| 20260510155545 | 25 | 74 | 3.2 | 4.8 | 0.00 | 0.00 | 0.00 | 84 | 1016.3 |
| 20260510155041 | 25 | 89 | 8.0 | 11.3 | 0.00 | 0.00 | 0.00 | 84 | 1016.2 |
| 20260510154537 | 25 | 67 | 4.8 | 6.4 | 0.00 | 0.00 | 0.00 | 83 | 1016.2 |
| 20260510154032 | 25 | 40 | 8.0 | 11.3 | 0.00 | 0.00 | 0.00 | 84 | 1016.2 |
| 20260510153527 | 25 | 68 | 9.7 | 12.9 | 0.00 | 0.00 | 0.00 | 83 | 1016.1 |
| 20260510153025 | 26 | 37 | 4.8 | 9.7 | 0.00 | 0.00 | 0.00 | 83 | 1016.1 |
| 20260510152522 | 26 | 121 | 4.8 | 6.4 | 0.00 | 0.00 | 0.00 | 80 | 1016.0 |
| 20260510152018 | 25 | 91 | 9.7 | 11.3 | 0.00 | 0.00 | 0.00 | 83 | 1016.1 |
| 20260510151514 | 25 | 107 | 11.3 | 14.5 | 0.00 | 0.00 | 0.00 | 83 | 1016.2 |
| 20260510151012 | 25 | 93 | 6.4 | 6.4 | 0.00 | 0.00 | 0.00 | 83 | 1016.0 |
| 20260510150507 | 25 | 106 | 9.7 | 12.9 | 0.00 | 0.00 | 0.00 | 84 | 1015.9 |
| 20260510150003 | 25 | 85 | 3.2 | 4.8 | 0.00 | 0.00 | 0.00 | 83 | 1016.1 |
| 20260510145500 | 24 | 73 | 8.0 | 11.3 | 0.00 | 0.00 | 0.00 | 84 | 1016.0 |
| 20260510144956 | 25 | 118 | 11.3 | 14.5 | 0.00 | 0.00 | 0.00 | 83 | 1016.1 |
| 20260510144453 | 25 | 83 | 6.4 | 9.7 | 0.00 | 0.00 | 0.00 | 81 | 1015.9 |
| 20260510143949 | 25 | 70 | 6.4 | 9.7 | 0.00 | 0.00 | 0.00 | 81 | 1016.0 |
| 20260510143444 | 24 | 163 | 3.2 | 3.2 | 0.00 | 0.00 | 0.00 | 83 | 1015.8 |
| 20260510142942 | 24 | 126 | 4.8 | 6.4 | 0.00 | 0.00 | 0.00 | 82 | 1015.7 |
| 20260510142438 | 24 | 134 | 8.0 | 11.3 | 0.00 | 0.00 | 0.00 | 83 | 1015.8 |
| 20260510141935 | 24 | 175 | 4.8 | 4.8 | 0.00 | 0.00 | 0.00 | 83 | 1015.8 |
| 20260510141432 | 23 | 67 | 0.0 | 1.6 | 0.00 | 0.00 | 0.00 | 85 | 1015.6 |
| 20260510140929 | 23 | 111 | 6.4 | 6.4 | 0.00 | 0.00 | 0.00 | 86 | 1015.6 |
| 20260510140425 | 23 | 71 | 1.6 | 3.2 | 0.00 | 0.00 | 0.00 | 85 | 1015.5 |
| 20260510135924 | 23 | 113 | 0.0 | 1.6 | 0.00 | 0.00 | 0.00 | 86 | 1015.4 |
| 20260510135416 | 23 | 103 | 4.8 | 9.7 | 0.00 | 0.00 | 0.00 | 86 | 1015.5 |
| 20260510134913 | 23 | 129 | 8.0 | 11.3 | 0.00 | 0.00 | 0.00 | 87 | 1015.6 |
| 20260510134409 | 23 | 103 | 9.7 | 11.3 | 0.00 | 0.00 | 0.00 | 86 | 1015.4 |
| 20260510133906 | 23 | 176 | 8.0 | 9.7 | 0.00 | 0.00 | 0.00 | 86 | 1015.1 |
| 20260510133402 | 23 | 96 | 3.2 | 4.8 | 0.00 | 0.00 | 0.00 | 86 | 1015.1 |
| 20260510132857 | 22 | 86 | 1.6 | 3.2 | 0.00 | 0.00 | 0.00 | 87 | 1015.3 |
| 20260510132356 | 22 | 107 | 6.4 | 9.7 | 0.00 | 0.00 | 0.00 | 88 | 1015.1 |
| 20260510131852 | 22 | 111 | 6.4 | 9.7 | 0.00 | 0.00 | 0.00 | 88 | 1015.0 |
| 20260510131349 | 22 | 128 | 4.8 | 4.8 | 0.00 | 0.00 | 0.00 | 89 | 1014.6 |
| 20260510130845 | 22 | 132 | 1.6 | 3.2 | 0.00 | 0.00 | 0.00 | 89 | 1014.7 |
| 20260510130343 | 22 | 98 | 3.2 | 6.4 | 0.00 | 0.00 | 0.00 | 90 | 1014.6 |
| 20260510125834 | 22 | 91 | 4.8 | 9.7 | 0.00 | 0.00 | 0.00 | 89 | 1014.6 |
| 20260510125330 | 22 | 124 | 6.4 | 6.4 | 0.00 | 0.00 | 0.00 | 89 | 1014.6 |
| 20260510124827 | 21 | 46 | 3.2 | 4.8 | 0.00 | 0.00 | 0.00 | 90 | 1014.6 |
| 20260510124324 | 21 | 67 | 0.0 | 1.6 | 0.00 | 0.00 | 0.00 | 90 | 1014.3 |
| 20260510123820 | 21 | 143 | 6.4 | 6.4 | 0.00 | 0.00 | 0.00 | 90 | 1014.4 |
| 20260510123315 | 21 | 125 | 3.2 | 3.2 | 0.00 | 0.00 | 0.00 | 89 | 1014.3 |
| 20260510122812 | 21 | 133 | 3.2 | 3.2 | 0.00 | 0.00 | 0.00 | 89 | 1013.9 |
| 20260510122308 | 21 | 95 | 1.6 | 1.6 | 0.00 | 0.00 | 0.00 | 90 | 1013.9 |
| 20260510121804 | 21 | 123 | 6.4 | 6.4 | 0.00 | 0.00 | 0.00 | 90 | 1013.7 |
| 20260510121302 | 21 | 156 | 3.2 | 3.2 | 0.00 | 0.00 | 0.00 | 91 | 1013.7 |
| 20260510120759 | 21 | 148 | 4.8 | 6.4 | 0.00 | 0.00 | 0.00 | 90 | 1013.6 |
| 20260510120256 | 21 | 184 | 3.2 | 3.2 | 0.00 | 0.00 | 0.00 | 91 | 1013.4 |
| 20260510115752 | 21 | 175 | 6.4 | 6.4 | 0.00 | 0.00 | 0.00 | 91 | 1013.2 |
| 20260510115250 | 21 | 167 | 4.8 | 4.8 | 0.00 | 0.00 | 0.00 | 91 | 1013.5 |
| 20260510114744 | 21 | 180 | 4.8 | 6.4 | 0.00 | 0.00 | 0.00 | 91 | 1013.4 |
| 20260510114242 | 20 | 192 | 0.0 | 0.0 | 0.00 | 0.00 | 0.00 | 91 | 1013.5 |
| 20260510113737 | 20 | 196 | 4.8 | 6.4 | 0.00 | 0.00 | 0.00 | 91 | 1013.6 |
| 20260510113234 | 21 | 218 | 3.2 | 4.8 | 0.00 | 0.00 | 0.00 | 91 | 1013.4 |
| 20260510112731 | 21 | 194 | 3.2 | 4.8 | 0.00 | 0.00 | 0.00 | 90 | 1013.2 |
| 20260510112227 | 20 | 215 | 3.2 | 3.2 | 0.00 | 0.00 | 0.00 | 90 | 1013.4 |
| 20260510111717 | 20 | 184 | 4.8 | 11.3 | 0.00 | 0.00 | 0.00 | 91 | 1013.1 |
| 20260510111215 | 21 | 210 | 3.2 | 3.2 | 0.00 | 0.00 | 0.00 | 90 | 1013.0 |
| 20260510110714 | 21 | 209 | 1.6 | 1.6 | 0.00 | 0.00 | 0.00 | 90 | 1013.1 |
| 20260510110213 | 21 | 261 | 1.6 | 1.6 | 0.00 | 0.00 | 0.00 | 90 | 1013.1 |
| 20260510105712 | 21 | 217 | 3.2 | 3.2 | 0.00 | 0.00 | 0.00 | 89 | 1013.2 |
| 20260510105207 | 21 | 220 | 4.8 | 4.8 | 0.00 | 0.00 | 0.00 | 89 | 1013.1 |
| 20260510104704 | 21 | 220 | 4.8 | 6.4 | 0.00 | 0.00 | 0.00 | 88 | 1012.9 |
| 20260510104201 | 21 | 258 | 3.2 | 4.8 | 0.00 | 0.00 | 0.00 | 88 | 1012.7 |
| 20260510103658 | 21 | 215 | 8.0 | 9.7 | 0.00 | 0.00 | 0.00 | 88 | 1012.5 |
| 20260510103155 | 21 | 201 | 3.2 | 4.8 | 0.00 | 0.00 | 0.00 | 88 | 1012.6 |
| 20260510102655 | 21 | 184 | 4.8 | 4.8 | 0.00 | 0.00 | 0.00 | 88 | 1012.9 |
| 20260510102151 | 21 | 216 | 1.6 | 1.6 | 0.00 | 0.00 | 0.00 | 88 | 1012.9 |
| 20260510101648 | 21 | 161 | 6.4 | 9.7 | 0.00 | 0.00 | 0.00 | 88 | 1012.7 |
| 20260510101146 | 21 | 215 | 9.7 | 11.3 | 0.00 | 0.00 | 0.00 | 87 | 1012.4 |
| 20260510100642 | 21 | 179 | 14.5 | 14.5 | 0.00 | 0.00 | 0.00 | 87 | 1012.3 |
| 20260510100140 | 21 | 195 | 6.4 | 12.9 | 0.00 | 0.00 | 0.00 | 87 | 1012.4 |
| 20260510095635 | 21 | 189 | 3.2 | 6.4 | 0.00 | 0.00 | 0.00 | 87 | 1012.3 |
| 20260510095131 | 21 | 184 | 9.7 | 11.3 | 0.00 | 0.00 | 0.00 | 87 | 1012.2 |
| 20260510094629 | 21 | 198 | 9.7 | 12.9 | 0.00 | 0.00 | 0.00 | 87 | 1012.3 |
| 20260510094126 | 21 | 188 | 1.6 | 1.6 | 0.00 | 0.00 | 0.00 | 86 | 1012.3 |
| 20260510093622 | 21 | 119 | 6.4 | 9.7 | 0.00 | 0.00 | 0.00 | 86 | 1012.4 |
| 20260510093119 | 21 | 190 | 6.4 | 9.7 | 0.00 | 0.00 | 0.00 | 86 | 1012.3 |
| 20260510092615 | 21 | 201 | 6.4 | 9.7 | 0.00 | 0.00 | 0.00 | 86 | 1012.4 |
| 20260510092115 | 21 | 229 | 8.0 | 11.3 | 0.00 | 0.00 | 0.00 | 86 | 1012.3 |
| 20260510091612 | 21 | 170 | 6.4 | 12.9 | 0.00 | 0.00 | 0.00 | 86 | 1012.2 |
| 20260510091108 | 21 | 175 | 8.0 | 11.3 | 0.00 | 0.00 | 0.00 | 87 | 1012.2 |
| 20260510090605 | 21 | 185 | 9.7 | 14.5 | 0.00 | 0.00 | 0.00 | 86 | 1012.0 |
| 20260510090101 | 21 | 157 | 4.8 | 6.4 | 0.00 | 0.00 | 0.00 | 86 | 1012.1 |
| 20260510085556 | 22 | 160 | 14.5 | 16.1 | 0.00 | 0.00 | 0.00 | 86 | 1012.2 |
| 20260510085052 | 22 | 154 | 11.3 | 14.5 | 0.00 | 0.00 | 0.00 | 86 | 1012.2 |
| 20260510084549 | 22 | 181 | 4.8 | 6.4 | 0.00 | 0.00 | 0.00 | 86 | 1012.3 |
| 20260510084046 | 22 | 194 | 4.8 | 4.8 | 0.00 | 0.00 | 0.00 | 85 | 1012.5 |
| 20260510083542 | 22 | 200 | 12.9 | 17.7 | 0.00 | 0.00 | 0.00 | 85 | 1012.3 |
| 20260510083038 | 22 | 137 | 4.8 | 6.4 | 0.00 | 0.00 | 0.00 | 85 | 1012.6 |
| 20260510082535 | 22 | 169 | 8.0 | 9.7 | 0.00 | 0.00 | 0.00 | 85 | 1012.5 |
| 20260510082031 | 22 | 196 | 6.4 | 9.7 | 0.00 | 0.00 | 0.00 | 85 | 1012.5 |
| 20260510081526 | 22 | 128 | 6.4 | 6.4 | 0.00 | 0.00 | 0.00 | 84 | 1012.5 |
| 20260510081022 | 22 | 185 | 11.3 | 12.9 | 0.00 | 0.00 | 0.00 | 84 | 1012.4 |
| 20260510080521 | 22 | 199 | 6.4 | 6.4 | 0.00 | 0.00 | 0.00 | 84 | 1012.6 |
| 20260510080018 | 22 | 147 | 4.8 | 4.8 | 0.00 | 0.00 | 0.00 | 84 | 1012.8 |
| 20260510075515 | 22 | 113 | 4.8 | 6.4 | 0.00 | 0.00 | 0.00 | 83 | 1012.9 |
| 20260510075012 | 22 | 162 | 6.4 | 6.4 | 0.00 | 0.00 | 0.00 | 82 | 1012.8 |
| 20260510074510 | 23 | 114 | 8.0 | 9.7 | 0.00 | 0.00 | 0.00 | 81 | 1012.9 |
| 20260510074005 | 23 | 122 | 8.0 | 11.3 | 0.00 | 0.00 | 0.00 | 81 | 1012.6 |
| 20260510073501 | 23 | 172 | 8.0 | 11.3 | 0.00 | 0.00 | 0.00 | 81 | 1012.5 |
| 20260510072958 | 22 | 186 | 8.0 | 9.7 | 0.00 | 0.00 | 0.00 | 81 | 1012.6 |
| 20260510072455 | 22 | 153 | 6.4 | 11.3 | 0.00 | 0.00 | 0.00 | 81 | 1012.7 |
| 20260510071950 | 22 | 223 | 9.7 | 9.7 | 0.00 | 0.00 | 0.00 | 82 | 1012.7 |
| 20260510071447 | 22 | 162 | 4.8 | 9.7 | 0.00 | 0.00 | 0.00 | 82 | 1012.8 |
| 20260510070945 | 22 | 110 | 8.0 | 11.3 | 0.00 | 0.00 | 0.00 | 81 | 1012.6 |
| 20260510070442 | 22 | 167 | 4.8 | 6.4 | 0.00 | 0.00 | 0.00 | 81 | 1012.7 |
| 20260510065938 | 22 | 178 | 6.4 | 9.7 | 0.00 | 0.00 | 0.00 | 81 | 1012.7 |
| 20260510065435 | 22 | 114 | 6.4 | 6.4 | 0.00 | 0.00 | 0.00 | 80 | 1012.6 |
| 20260510064931 | 22 | 155 | 6.4 | 9.7 | 0.00 | 0.00 | 0.00 | 80 | 1012.7 |
| 20260510064428 | 22 | 119 | 8.0 | 11.3 | 0.00 | 0.00 | 0.00 | 79 | 1012.9 |
| 20260510063924 | 23 | 171 | 4.8 | 9.7 | 0.00 | 0.00 | 0.00 | 79 | 1012.9 |
| 20260510063415 | 23 | 125 | 4.8 | 4.8 | 0.00 | 0.00 | 0.00 | 79 | 1012.6 |
| 20260510062913 | 23 | 136 | 6.4 | 11.3 | 0.00 | 0.00 | 0.00 | 78 | 1012.7 |
| 20260510062408 | 23 | 136 | 9.7 | 14.5 | 0.00 | 0.00 | 0.00 | 78 | 1012.7 |
| 20260510061904 | 23 | 102 | 3.2 | 3.2 | 0.00 | 0.00 | 0.00 | 77 | 1012.5 |
| 20260510061401 | 23 | 114 | 8.0 | 11.3 | 0.00 | 0.00 | 0.00 | 77 | 1012.6 |
| 20260510060856 | 23 | 91 | 9.7 | 11.3 | 0.00 | 0.00 | 0.00 | 76 | 1012.7 |
| 20260510060354 | 23 | 101 | 6.4 | 6.4 | 0.00 | 0.00 | 0.00 | 76 | 1012.5 |
| 20260510055850 | 23 | 94 | 9.7 | 11.3 | 0.00 | 0.00 | 0.00 | 75 | 1012.4 |
| 20260510055349 | 23 | 181 | 3.2 | 3.2 | 0.00 | 0.00 | 0.00 | 75 | 1012.6 |
| 20260510054843 | 23 | 91 | 3.2 | 3.2 | 0.00 | 0.00 | 0.00 | 75 | 1012.7 |
| 20260510054339 | 23 | 165 | 8.0 | 11.3 | 0.00 | 0.00 | 0.00 | 75 | 1012.7 |
| 20260510053833 | 23 | 134 | 9.7 | 12.9 | 0.00 | 0.00 | 0.00 | 76 | 1012.4 |
| 20260510053329 | 23 | 166 | 3.2 | 3.2 | 0.00 | 0.00 | 0.00 | 76 | 1012.6 |
| 20260510052826 | 24 | 131 | 3.2 | 4.8 | 0.00 | 0.00 | 0.00 | 76 | 1012.5 |
| 20260510052322 | 24 | 127 | 1.6 | 3.2 | 0.00 | 0.00 | 0.00 | 77 | 1012.6 |
| 20260510051818 | 24 | 91 | 3.2 | 3.2 | 0.00 | 0.00 | 0.00 | 77 | 1012.6 |
| 20260510051315 | 24 | 97 | 6.4 | 6.4 | 0.00 | 0.00 | 0.00 | 78 | 1012.6 |
| 20260510050812 | 24 | 121 | 3.2 | 3.2 | 0.00 | 0.00 | 0.00 | 78 | 1012.7 |
| 20260510050309 | 24 | 87 | 1.6 | 3.2 | 0.00 | 0.00 | 0.00 | 78 | 1012.6 |
| 20260510045806 | 24 | 147 | 3.2 | 4.8 | 0.00 | 0.00 | 0.00 | 78 | 1012.6 |
| 20260510045305 | 24 | 81 | 3.2 | 3.2 | 0.00 | 0.00 | 0.00 | 79 | 1012.3 |
| 20260510044759 | 24 | 116 | 6.4 | 6.4 | 0.00 | 0.00 | 0.00 | 79 | 1012.4 |
| 20260510044256 | 24 | 93 | 3.2 | 4.8 | 0.00 | 0.00 | 0.00 | 80 | 1012.4 |
| 20260510043752 | 24 | 109 | 1.6 | 1.6 | 0.00 | 0.00 | 0.00 | 82 | 1012.6 |
| 20260510043243 | 25 | 92 | 4.8 | 4.8 | 0.00 | 0.00 | 0.00 | 82 | 1012.7 |
| 20260510042740 | 25 | 100 | 6.4 | 9.7 | 0.00 | 0.00 | 0.00 | 81 | 1012.4 |
| 20260510042230 | 25 | 69 | 3.2 | 3.2 | 0.00 | 0.00 | 0.00 | 82 | 1012.5 |
| 20260510041727 | 25 | 84 | 0.0 | 1.6 | 0.00 | 0.00 | 0.00 | 81 | 1012.5 |
| 20260510041225 | 25 | 111 | 1.6 | 3.2 | 0.00 | 0.00 | 0.00 | 81 | 1012.5 |
| 20260510040721 | 25 | 87 | 4.8 | 4.8 | 0.00 | 0.00 | 0.00 | 81 | 1012.5 |
| 20260510040218 | 25 | 91 | 3.2 | 4.8 | 0.00 | 0.00 | 0.00 | 80 | 1012.3 |
| 20260510035713 | 25 | 138 | 3.2 | 3.2 | 0.00 | 0.00 | 0.00 | 80 | 1012.4 |
| 20260510035210 | 25 | 132 | 3.2 | 3.2 | 0.00 | 0.00 | 0.00 | 80 | 1012.4 |
| 20260510034705 | 25 | 101 | 3.2 | 3.2 | 0.00 | 0.00 | 0.00 | 80 | 1012.4 |
| 20260510034203 | 25 | 104 | 4.8 | 4.8 | 0.00 | 0.00 | 0.00 | 80 | 1012.3 |
| 20260510033659 | 25 | 118 | 1.6 | 3.2 | 0.00 | 0.00 | 0.00 | 79 | 1012.3 |
| 20260510033158 | 25 | 134 | 3.2 | 4.8 | 0.00 | 0.00 | 0.00 | 79 | 1012.1 |
| 20260510032653 | 25 | 99 | 3.2 | 4.8 | 0.00 | 0.00 | 0.00 | 79 | 1012.2 |
| 20260510032149 | 26 | 111 | 3.2 | 4.8 | 0.00 | 0.00 | 0.00 | 79 | 1012.2 |
| 20260510031643 | 26 | 99 | 6.4 | 9.7 | 0.00 | 0.00 | 0.00 | 78 | 1012.1 |
| 20260510031140 | 26 | 143 | 3.2 | 3.2 | 0.00 | 0.00 | 0.00 | 78 | 1012.0 |
| 20260510030635 | 26 | 114 | 3.2 | 4.8 | 0.00 | 0.00 | 0.00 | 78 | 1011.9 |
| 20260510030133 | 26 | 104 | 6.4 | 9.7 | 0.00 | 0.00 | 0.00 | 78 | 1011.8 |
| 20260510025630 | 26 | 81 | 3.2 | 3.2 | 0.00 | 0.00 | 0.00 | 77 | 1011.8 |
| 20260510025127 | 26 | 78 | 4.8 | 6.4 | 0.00 | 0.00 | 0.00 | 77 | 1011.6 |
| 20260510024624 | 26 | 110 | 1.6 | 1.6 | 0.00 | 0.00 | 0.00 | 76 | 1011.6 |
| 20260510024121 | 26 | 101 | 4.8 | 4.8 | 0.00 | 0.00 | 0.00 | 76 | 1011.6 |
| 20260510023616 | 26 | 138 | 11.3 | 12.9 | 0.00 | 0.00 | 0.00 | 75 | 1011.4 |
| 20260510023113 | 27 | 148 | 1.6 | 3.2 | 0.00 | 0.00 | 0.00 | 73 | 1011.6 |
| 20260510022608 | 27 | 86 | 4.8 | 4.8 | 0.00 | 0.00 | 0.00 | 72 | 1011.5 |
| 20260510022102 | 27 | 68 | 3.2 | 4.8 | 0.00 | 0.00 | 0.00 | 71 | 1011.2 |
| 20260510021559 | 27 | 127 | 6.4 | 9.7 | 0.00 | 0.00 | 0.00 | 70 | 1011.1 |
| 20260510021056 | 27 | 136 | 1.6 | 1.6 | 0.00 | 0.00 | 0.00 | 68 | 1011.0 |
| 20260510020550 | 27 | 144 | 1.6 | 3.2 | 0.00 | 0.00 | 0.00 | 67 | 1010.8 |
| 20260510020046 | 27 | 125 | 3.2 | 3.2 | 0.00 | 0.00 | 0.00 | 67 | 1010.7 |
| 20260510015542 | 27 | 142 | 4.8 | 4.8 | 0.00 | 0.00 | 0.00 | 66 | 1010.8 |
| 20260510015038 | 27 | 135 | 1.6 | 1.6 | 0.00 | 0.00 | 0.00 | 66 | 1010.7 |
| 20260510014535 | 28 | 105 | 3.2 | 4.8 | 0.00 | 0.00 | 0.00 | 65 | 1010.7 |
| 20260510014032 | 28 | 153 | 3.2 | 3.2 | 0.00 | 0.00 | 0.00 | 64 | 1010.9 |
| 20260510013526 | 28 | 130 | 3.2 | 3.2 | 0.00 | 0.00 | 0.00 | 64 | 1010.8 |
| 20260510013022 | 28 | 137 | 3.2 | 3.2 | 0.00 | 0.00 | 0.00 | 63 | 1010.6 |
| 20260510012522 | 28 | 118 | 3.2 | 3.2 | 0.00 | 0.00 | 0.00 | 63 | 1010.6 |
| 20260510012019 | 28 | 125 | 3.2 | 3.2 | 0.00 | 0.00 | 0.00 | 62 | 1010.7 |
| 20260510011518 | 28 | 99 | 3.2 | 4.8 | 0.00 | 0.00 | 0.00 | 61 | 1010.4 |
| 20260510011013 | 28 | 143 | 4.8 | 6.4 | 0.00 | 0.00 | 0.00 | 61 | 1010.6 |
| 20260510010511 | 28 | 116 | 4.8 | 4.8 | 0.00 | 0.00 | 0.00 | 60 | 1010.6 |
| 20260510010008 | 29 | 103 | 6.4 | 9.7 | 0.00 | 0.00 | 0.00 | 60 | 1010.5 |
| 20260510005503 | 29 | 99 | 4.8 | 6.4 | 0.00 | 0.00 | 0.00 | 60 | 1010.4 |
| 20260510005001 | 29 | 94 | 6.4 | 9.7 | 0.00 | 0.00 | 0.00 | 60 | 1010.4 |
| 20260510004458 | 29 | 87 | 6.4 | 9.7 | 0.00 | 0.00 | 0.00 | 59 | 1010.3 |
| 20260510003957 | 29 | 84 | 6.4 | 9.7 | 0.00 | 0.00 | 0.00 | 58 | 1010.3 |
| 20260510003453 | 29 | 105 | 8.0 | 9.7 | 0.00 | 0.00 | 0.00 | 58 | 1010.4 |
| 20260510002948 | 29 | 97 | 6.4 | 6.4 | 0.00 | 0.00 | 0.00 | 58 | 1010.3 |
| 20260510002444 | 30 | 122 | 8.0 | 11.3 | 0.00 | 0.00 | 0.00 | 58 | 1010.2 |
| 20260510001941 | 30 | 106 | 11.3 | 14.5 | 0.00 | 0.00 | 0.00 | 57 | 1010.2 |
| 20260510001438 | 30 | 86 | 6.4 | 6.4 | 0.00 | 0.00 | 0.00 | 57 | 1010.2 |
| 20260510000936 | 30 | 81 | 6.4 | 11.3 | 0.00 | 0.00 | 0.00 | 57 | 1010.0 |
| 20260510000433 | 30 | 108 | 6.4 | 9.7 | 0.00 | 0.00 | 0.00 | 56 | 1010.1 |
| 20260509235928 | 30 | 107 | 9.7 | 11.3 | 0.00 | 0.00 | 0.00 | 57 | 1010.1 |
| 20260509235426 | 30 | 152 | 3.2 | 4.8 | 0.00 | 0.00 | 0.00 | 57 | 1009.8 |
| 20260509234922 | 30 | 124 | 4.8 | 4.8 | 0.00 | 0.00 | 0.00 | 56 | 1010.0 |
| 20260509234419 | 30 | 98 | 3.2 | 6.4 | 0.00 | 0.00 | 0.00 | 56 | 1009.8 |
| 20260509233917 | 30 | 66 | 0.0 | 0.0 | 0.00 | 0.00 | 0.00 | 56 | 1009.8 |
| 20260509233414 | 30 | 169 | 8.0 | 9.7 | 0.00 | 0.00 | 0.00 | 56 | 1009.8 |
| 20260509232910 | 30 | 131 | 6.4 | 6.4 | 0.00 | 0.00 | 0.00 | 56 | 1009.8 |
| 20260509232408 | 30 | 119 | 6.4 | 9.7 | 0.00 | 0.00 | 0.00 | 56 | 1009.8 |
| 20260509231903 | 30 | 36 | 0.0 | 0.0 | 0.00 | 0.00 | 0.00 | 55 | 1009.6 |
| 20260509231400 | 30 | 94 | 6.4 | 9.7 | 0.00 | 0.00 | 0.00 | 56 | 1009.7 |
| 20260509230859 | 30 | 131 | 9.7 | 12.9 | 0.00 | 0.00 | 0.00 | 56 | 1009.7 |
| 20260509230355 | 31 | 123 | 6.4 | 6.4 | 0.00 | 0.00 | 0.00 | 56 | 1009.8 |
| 20260509225851 | 30 | 59 | 6.4 | 6.4 | 0.00 | 0.00 | 0.00 | 55 | 1009.7 |
| 20260509225348 | 31 | 134 | 6.4 | 9.7 | 0.00 | 0.00 | 0.00 | 54 | 1009.7 |
| 20260509224843 | 30 | 82 | 9.7 | 11.3 | 0.00 | 0.00 | 0.00 | 55 | 1009.7 |
| 20260509224339 | 30 | 86 | 3.2 | 4.8 | 0.00 | 0.00 | 0.00 | 55 | 1009.9 |
| 20260509223837 | 30 | 152 | 6.4 | 9.7 | 0.00 | 0.00 | 0.00 | 54 | 1009.8 |
| 20260509223333 | 30 | 92 | 9.7 | 12.9 | 0.00 | 0.00 | 0.00 | 56 | 1009.7 |
| 20260509222830 | 30 | 81 | 6.4 | 6.4 | 0.00 | 0.00 | 0.00 | 57 | 1009.7 |
| 20260509222326 | 30 | 94 | 11.3 | 12.9 | 0.00 | 0.00 | 0.00 | 55 | 1009.8 |
| 20260509221821 | 30 | 126 | 4.8 | 4.8 | 0.00 | 0.00 | 0.00 | 55 | 1009.7 |
| 20260509221319 | 30 | 72 | 3.2 | 3.2 | 0.00 | 0.00 | 0.00 | 55 | 1009.8 |
| 20260509220814 | 30 | 146 | 8.0 | 11.3 | 0.00 | 0.00 | 0.00 | 55 | 1009.7 |
| 20260509220310 | 30 | 82 | 6.4 | 9.7 | 0.00 | 0.00 | 0.00 | 54 | 1009.7 |
| 20260509215806 | 30 | 122 | 8.0 | 11.3 | 0.00 | 0.00 | 0.00 | 53 | 1009.8 |
| 20260509215306 | 30 | 121 | 8.0 | 12.9 | 0.00 | 0.00 | 0.00 | 53 | 1009.9 |
| 20260509214800 | 31 | 132 | 12.9 | 14.5 | 0.00 | 0.00 | 0.00 | 53 | 1009.8 |
| 20260509214257 | 31 | 91 | 8.0 | 11.3 | 0.00 | 0.00 | 0.00 | 50 | 1010.0 |
| 20260509213754 | 31 | 119 | 11.3 | 12.9 | 0.00 | 0.00 | 0.00 | 51 | 1010.0 |
| 20260509213249 | 32 | 68 | 6.4 | 12.9 | 0.00 | 0.00 | 0.00 | 51 | 1009.9 |
| 20260509212747 | 31 | 187 | 0.0 | 0.0 | 0.00 | 0.00 | 0.00 | 48 | 1010.0 |
| 20260509212244 | 31 | 40 | 0.0 | 1.6 | 0.00 | 0.00 | 0.00 | 49 | 1010.1 |
| 20260509211745 | 31 | 349 | 3.2 | 3.2 | 0.00 | 0.00 | 0.00 | 53 | 1010.1 |
| 20260509211241 | 30 | 12 | 3.2 | 4.8 | 0.00 | 0.00 | 0.00 | 52 | 1010.3 |
| 20260509210738 | 31 | 339 | 6.4 | 9.7 | 0.00 | 0.00 | 0.00 | 51 | 1010.3 |
| 20260509210236 | 30 | 221 | 0.0 | 0.0 | 0.00 | 0.00 | 0.00 | 54 | 1010.4 |
| 20260509205735 | 30 | 352 | 3.2 | 3.2 | 0.00 | 0.00 | 0.00 | 51 | 1010.5 |
| 20260509205236 | 30 | 117 | 0.0 | 1.6 | 0.00 | 0.00 | 0.00 | 55 | 1010.6 |
| 20260509204732 | 30 | 206 | 0.0 | 0.0 | 0.00 | 0.00 | 0.00 | 51 | 1010.4 |
| 20260509204228 | 30 | 53 | 4.8 | 4.8 | 0.00 | 0.00 | 0.00 | 49 | 1010.8 |
| 20260509203724 | 29 | 101 | 4.8 | 6.4 | 0.00 | 0.00 | 0.00 | 48 | 1010.6 |
| 20260509203223 | 30 | 53 | 3.2 | 6.4 | 0.00 | 0.00 | 0.00 | 50 | 1010.8 |
| 20260509202718 | 29 | 72 | 6.4 | 6.4 | 0.00 | 0.00 | 0.00 | 47 | 1010.7 |
| 20260509202214 | 29 | 129 | 4.8 | 6.4 | 0.00 | 0.00 | 0.00 | 49 | 1011.0 |
| 20260509201709 | 28 | 116 | 8.0 | 11.3 | 0.00 | 0.00 | 0.00 | 52 | 1011.3 |
| 20260509201206 | 28 | 121 | 11.3 | 16.1 | 0.00 | 0.00 | 0.00 | 54 | 1011.4 |
| 20260509200702 | 27 | 95 | 17.7 | 20.9 | 0.00 | 0.00 | 0.00 | 54 | 1011.5 |
| 20260509200157 | 27 | 92 | 12.9 | 16.1 | 0.00 | 0.00 | 0.00 | 52 | 1011.8 |
| 20260509195653 | 27 | 118 | 9.7 | 12.9 | 0.00 | 0.00 | 0.00 | 49 | 1011.8 |
| 20260509195149 | 27 | 84 | 9.7 | 17.7 | 0.00 | 0.00 | 0.00 | 48 | 1012.0 |
| 20260509194643 | 27 | 177 | 9.7 | 12.9 | 0.00 | 0.00 | 0.00 | 52 | 1011.9 |
| 20260509194141 | 27 | 168 | 12.9 | 22.5 | 0.00 | 0.00 | 0.00 | 60 | 1011.8 |
| 20260509193636 | 28 | 194 | 11.3 | 16.1 | 0.00 | 0.00 | 0.00 | 59 | 1011.8 |
| 20260509193132 | 30 | 262 | 0.0 | 1.6 | 0.00 | 0.00 | 0.00 | 64 | 1011.7 |
| 20260509192629 | 30 | 351 | 1.6 | 4.8 | 0.00 | 0.00 | 0.00 | 65 | 1011.5 |